0 HST 1 20580U 90037B 26103.25790392 .00004371 00000-0 13847-3 0 9994 2 20580 28.4728 164.0875 0002305 141.6301 218.4459 15.30037103778610 0 ISS (ZARYA) 1 25544U 98067A 26103.16688155 .00004867 00000-0 96801-4 0 9995 2 25544 51.6321 261.8843 0006463 306.5385 53.5008 15.48891757561672 0 CXO 1 25867U 99040B 26105.90737653 .00000932 00000-0 00000-0 0 9998 2 25867 55.1609 118.4976 7943121 310.5395 0.1381 0.37807016 17086